RADUGA-1M 3 (39375 NORAD) Tracking and Keplerian Element Data

This shows tracking and keplerian element data for the satellite.

Feedback or suggestion? Click here.




ElementValue
Catalog39375
NameRADUGA-1M 3
Epoch Orbit1708
Epoch Day193.97446069
Epoch Year2018
RAAN173.8471
Inclination0.0398
Eccentricity0.0003511
Argument of Perigee300.7411
Mean Anonmoly237.0258
Mean Motion1.0027279
Decay Rate-4.9E-07
L11 39375U 13062A 18193.97446069 -.00000049 00000-0 00000+0 0 9999
L22 39375 0.0398 173.8471 0003511 300.7411 237.0258 1.00272790 17087

Live tracking and technical data element details for RADUGA-1M 3 (NORAD 39375). RADUGA-1M 3 can be tracked NOW for your location showing map with azimuth and elevation plus other details from your city location.

Track the satellite on the map from your city or location and see movement details for azimuth, elevation, latitude, longitude, range, height, and movement on the map or in text.







IsCatalogInMostPopularTable: catalog: 39375, numindb: 58
Update: records affected: 1



GetName: 39375 RADUGA-1M 3

Hit Count: updated at: Sun, 15 Jul 2018 23:09:54 GMT